This demonstration page uses our WeatherBlox Daily Observations layout. Learn more.

Left ArrowRight Arrow

Hourly Observations for August 21, 2021

Temp ( °F °C ) Dew Point ( °F °C ) Humidity (%) Winds ( mph kmh ) Pressure ( in mb ) Visibility ( mi km ) Precip ( " mm )
12:54 am 00:54 Clear 72 22.2 67 19.4 84 84 WSW 3 6 29.81 1009 10 16 0.00 0.00
1:54 am 01:54 Clear 70 21.1 67 19.4 90 90 W 6 9 29.82 1010 10 16 0.00 0.00
2:54 am 02:54 Clear 71 21.7 62 16.7 73 73 NW 13 20 29.84 1011 10 16 0.00 0.00
3:54 am 03:54 Clear 68 20 60 15.6 76 76 NNW 8 13 29.87 1011 10 16 0.00 0.00
4:54 am 04:54 Clear 65 18.3 57 13.9 76 76 N 9 15 29.88 1012 10 16 0.00 0.00
5:54 am 05:54 Clear 64 17.8 54 12.2 70 70 NNW 8 13 29.91 1013 10 16 0.00 0.00
6:54 am 06:54 Sunny 63 17.2 54 12.2 73 73 WNW 5 7 29.93 1014 10 16 0.00 0.00
7:54 am 07:54 Sunny 64 17.8 53 11.7 68 68 NNW 3 6 29.97 1015 10 16 0.00 0.00
8:54 am 08:54 Sunny 67 19.4 53 11.7 61 61 NNW 7 11 29.99 1016 10 16 0.00 0.00
9:54 am 09:54 Sunny 70 21.1 53 11.7 55 55 NNW 13 20 30.01 1016 10 16 0.00 0.00
10:54 am 10:54 Sunny 73 22.8 53 11.7 50 50 N 12 19 30.02 1017 10 16 0.00 0.00
11:54 am 11:54 Sunny 75 23.9 54 12.2 48 48 NNW 13 20 30.01 1016 10 16 0.00 0.00
12:54 pm 12:54 Sunny 78 25.6 56 13.3 47 47 N 13 20 30.01 1016 10 16 0.00 0.00
1:54 pm 13:54 Sunny 79 26.1 55 12.8 44 44 NNW 12 19 30.01 1016 10 16 0.00 0.00
2:54 pm 14:54 Sunny 79 26.1 55 12.8 44 44 NNE 12 19 30.01 1016 10 16 0.00 0.00
3:54 pm 15:54 Sunny 79 26.1 55 12.8 44 44 N 8 13 30.00 1016 10 16 0.00 0.00
4:54 pm 16:54 Sunny 80 26.7 56 13.3 44 44 N 12 19 29.99 1016 10 16 0.00 0.00
5:54 pm 17:54 Sunny 79 26.1 56 13.3 45 45 N 13 20 29.98 1015 10 16 0.00 0.00
6:54 pm 18:54 Sunny 77 25 57 13.9 50 50 NNE 9 15 29.97 1015 10 16 0.00 0.00
7:54 pm 19:54 Sunny 73 22.8 57 13.9 57 57 NE 7 11 29.97 1015 10 16 0.00 0.00
8:54 pm 20:54 Clear 68 20 58 14.4 70 70 NE 6 9 29.99 1016 10 16 0.00 0.00
9:54 pm 21:54 Clear 66 18.9 57 13.9 73 73 Calm 30.01 1016 10 16 0.00 0.00
10:54 pm 22:54 Clear 63 17.2 57 13.9 81 81 N 6 9 30.01 1016 10 16 0.00 0.00
11:54 pm 23:54 Clear 61 16.1 56 13.3 84 84 N 3 6 30.03 1017 10 16 0.00 0.00

Powered by AerisWeather